Tracking 30516 objects as of 20-May-2025
HD Live streaming from Space Station
objects crossing your sky now

THOR ABLESTAR DEB

Track THOR ABLESTAR DEB now!
10-day predictions


NORAD ID: 653
Int'l Code: 1961-015HE
Perigee: 887.0 km
Apogee: 1,128.6 km
Inclination: 67.5 °
Period: 105.1 minutes
Semi major axis: 7378 km
RCS: 0.0608 m2 (small)
Launch date: June 29, 1961
Source: United States (US)
Launch site: AIR FORCE EASTERN TEST RANGE (AFETR)

Note: This is SATELLITE DEBRIS
Your satellite tracking list
Your tracking list is empty




NASA's NSSDC Master Catalog

Two Line Element Set (TLE):
1 00653U 61015HE  25140.01692653  .00000694  00000-0  79329-3 0  9993
2 00653  67.4515 351.5494 0163733 291.4513 221.8675 13.69700320164028
Source of the keplerian elements: AFSPC